User: anonymous   Login
Location: Newark
(47.1042°N, 8.6744°E)
Time: 08:51:38
(UTC+00:00)
Language:

N. Korean satellite - Orbit

View from above orbital plane
View from above orbital plane
View from above satellite
View from above satellite

Ground track
Ground track

The orbit data is extracted from the following two-line orbital elements,

1 39026U 12072A   19315.76979716 +.00001443 +00000-0 +54305-4 0  9996
2 39026 097.2157 314.2499 0036257 303.5684 056.2096 15.28158078383846
Epoch (UTC): 11 November 2019 18:28:30
Eccentricity: 0.0036257
inclination: 97.2157°
perigee height: 456 km
apogee height: 506 km
right ascension of ascending node: 314.2499°
argument of perigee: 303.5684°
revolutions per day: 15.28158078
mean anomaly at epoch: 56.2096°
orbit number at epoch: 38384

The dashed part of the orbit path shows where the satellite is in the earth's shadow,  

DLR